Other Public Products
Issued by NWS Grand Forks, ND

Home | Current Version | Previous Version | Text Only | Print | Product List | Glossary Off
Versions: 1 2 3 4 5 6 7 8 9 10 11 12 13 14 15 16 17 18 19 20 21 22 23 24 25 26 27 28 29 30 31 32 33 34 35 36 37 38 39 40 41 42 43 44 45 46 47 48 49 50

000
FPUS83 KFGF 040310
OPUFGF
PRAIRIE TO PINES WEATHER ROUNDUP
NATIONAL WEATHER SERVICE EASTERN NORTH DAKOTA/GRAND FORKS ND
1000 PM CDT SUN MAY 03 2015

 **SATELLITE DATA USED TO AUGMENT SKY COVER AT AUTOMATED STATIONS**
 *****  WEATHER ACROSS EASTERN NORTH DAKOTA  *****

CITY           SKY/WX    TMP DP  RH WIND       PRES   REMARKS
GRAND FORKS    PTCLDY    49  28  44 NW10      29.97R
GRAND FORKS AF PTCLDY    53  26  35 NW8       29.99R
GRAND CITY NWS   N/A     54 N/A N/A N5          N/A
BUXTON         NOT AVBL
DEVILS LAKE    CLEAR     45  25  45 NW8       30.02R
FARGO          CLEAR     58  24  27 NW13      29.97R
WAHPETON ARPT  CLEAR     55  19  24 N9        29.97R
$$

 *****  WEATHER ACROSS CENTRAL AND WESTERN NORTH DAKOTA  *****

CITY           SKY/WX    TMP DP  RH WIND       PRES   REMARKS
JAMESTOWN      PTCLDY    46  24  42 N6        30.02R
BISMARCK       MOCLDY    57  22  25 N10       30.06R
MINOT          CLEAR     48  25  40 NW9       30.06R
MINOT AFB      CLEAR     44  25  47 NW6       30.05R
GARRISON         N/A     46  27  47 N6        30.06R
WILLISTON      CLEAR     47  20  34 NE5       30.08R
DICKINSON      MOCLDY    54  24  31 CALM      30.07R
HETTINGER      PTCLDY    46  27  47 NE10      30.08R
$$

 *****  OTHER OBSERVATIONS NORTHEAST NORTH DAKOTA  *****

CITY           SKY/WX    TMP DP  RH WIND       PRES   REMARKS
WALHALLA       MOCLDY    54  32  43 N13       30.01R
LANGDON        FAIR      46  25  42 NW7       30.02R
CAVALIER       MOCLDY    50  30  46 NW5       30.00R
GRAFTON        FAIR      55  28  35 N8        30.00R
CANDO          FAIR      45  30  57 N9        30.04R
FORT TOTTEN      N/A     52  29  41 CALM      29.95
ROLLA          NOT AVBL
RUGBY          NOT AVBL
 ***** THE ABOVE OBSERVATIONS ARE NON NWS ARE NOT QUALITY
        CONTROLLED AND MAY MIS-REPORT RAIN FOR SNOW...
$$

 *****  OTHER OBSERVATIONS SOUTHEAST NORTH DAKOTA *****

CITY           SKY/WX    TMP DP  RH WIND       PRES   REMARKS
COOPERSTOWN    NOT AVBL
VALLEY CITY    FAIR      48  23  37 NW8       30.02R
OAKES            N/A     48  28  46 N6        30.01R
GWINNER        CLEAR     54  23  30 NW10      30.01R
SHEYENNE NWR     N/A     55  24  30 N3        29.95S
BUFFALO        NOT AVBL
WYNDMERE       NOT AVBL
 ***** THE ABOVE OBSERVATIONS ARE NON NWS ARE NOT QUALITY
       CONTROLLED AND MAY MIS-REPORT RAIN FOR SNOW...
$$

  *****  WEATHER ACROSS NORTHERN MINNESOTA  *****

CITY           SKY/WX    TMP DP  RH WIND       PRES   REMARKS
FLAG ISLAND    CLEAR     52  39  62 N14       29.96R
WARROAD        CLEAR     50  37  62 N6        29.98R
ROSEAU         CLEAR     52  36  54 NW6       29.98R
HALLOCK        CLEAR     54  28  37 N3        29.98R
THF RVR FALLS  CLEAR     54  34  47 N10       29.98R
HALSTAD        NOT AVBL
FOSSTON        NOT AVBL
BAUDETTE       CLEAR     48  37  65 N5        29.97R
WASKISH        CLEAR     54  36  50 N7        29.96R
CROOKSTON      CLEAR     52  25  35 N8        29.98R
$$
  *****  WEATHER ACROSS CENTRAL AND WEST MINNESOTA  *****

CITY           SKY/WX    TMP DP  RH WIND       PRES   REMARKS
BEMIDJI        CLEAR     53  27  37 N6        29.94R
PARK RAPIDS    CLEAR     52  26  36 NW7       29.93R
WADENA         CLEAR     52  28  40 NW6       29.93R
DETROIT LAKES  CLEAR     55  25  30 N7        29.96R
MOORHEAD       CLEAR     55  21  26 NW9       29.97R
FERGUS FALLS   CLEAR     55  27  33 N12       29.96R
ELBOW LAKE     FAIR      58  29  32 N18       29.94R
MORRIS MN      CLEAR     54  30  40 NW9       29.93R
STAPLES        FAIR      52  30  43 NW6       29.92R
WHEATON        CLEAR     55  25  30 NW10      29.98R
$$
  *****  WEATHER ELSEWHERE ACROSS MINNESOTA  *****

CITY           SKY/WX    TMP DP  RH WIND       PRES   REMARKS
DULUTH         PTCLDY    57  33  40 NW7       29.90R
INTRNTL FALLS  CLEAR     51  34  52 NW10      29.94R
ELY            CLEAR     52  28  40 NW5       29.89R
CLOQUET        CLEAR     55  25  30 CALM      29.91R
BRAINERD       CLEAR     52  38  58 CALM      29.92R
HIBBING        CLEAR     54  24  31 NW7       29.89R
ALEXANDRIA     CLEAR     55  32  41 N5        29.94R
SAINT CLOUD    FAIR      56  40  55 N3        29.91R
MINNEAPOLIS    CLOUDY    63  44  50 NE10      29.88R
$$

  *****  WEATHER ACROSS SOUTH DAKOTA  *****

CITY           SKY/WX    TMP DP  RH WIND       PRES   REMARKS
SIOUX FALLS    PTCLDY    62  35  36 N10       29.95R
BROOKINGS      CLEAR     55  30  38 N10       29.98R
WATERTOWN      CLEAR     50  30  46 NW6       29.98R
HURON          CLEAR     54  28  36 N9        29.98R
SISSETON         N/A     51  26  37 NW9       29.97R
ABERDEEN       CLEAR     53  23  31 N9        30.01R
MITCHELL       CLEAR     59  36  42 N10       29.97R
PIERRE         PTCLDY    53  25  33 N9        30.03R
MOBRIDGE       CLEAR     54  22  28 NE13      30.03R
RAPID CITY     PTCLDY    53  34  48 NE10      30.05R
$$

  *****  SOME WEATHER IN NEARBY STATES *****

CITY           SKY/WX    TMP DP  RH WIND       PRES   REMARKS
GLASGOW MT     CLEAR     51  26  37 NE10      30.05R
GREAT FALLS MT CLEAR     54  24  31 NE10      29.94R
CHEYENNE WY    CLOUDY    49  44  83 W6        30.09R
SCOTTSBLUFF NE CLOUDY    59  41  51 NE12      30.02R
OMAHA NE       CLOUDY    74  57  55 N14       29.82R
DES MOINES IA  CLOUDY    74  57  55 SE6       29.81R
DAVENPORT IA   MOCLDY    75  53  46 S12       29.90R
CHICAGO IL     MOCLDY    64  54  69 S13       29.92F
EAU CLAIRE WI  CLOUDY    57  52  83 N5        29.88R
LA CROSSE WI   RAIN      62  58  86 N8        29.88R FOG
$$

  *****  SOME NATIONAL WEATHER *****

CITY           SKY/WX    TMP DP  RH WIND       PRES   REMARKS
LA GUARDIA NY  PTCLDY    60  46  59 S7        30.14R
RALEIGH NC     PTCLDY    60  49  66 CALM      30.22R
ATLANTA GA     MOCLDY    69  49  48 CALM      30.19R
NEW ORLEANS LA CLEAR     70  55  59 SE8       30.12R
OKLAHOMA CITY  MOCLDY    68  54  60 S14       29.93R
ALBUQUERQUE NM PTCLDY    67  35  30 N12       29.98R
SALT LAKE CITY MOCLDY    68  44  42 N12       29.85R
LOS ANGELES CA CLEAR     58  50  75 W17       29.86R
BOISE ID       CLEAR     71  28  20 N5        29.78S
SEATTLE WA     CLEAR     62  28  28 NW5       29.89F
$$

*** WEATHER ACROSS MANITOBA...SASKATCHEWAN AND ONTARIO ***
                ***ONTARIO***

CITY           SKY/WX    TMP DP  RH WIND       PRES   REMARKS
GERALDTON      PTCLDY    54  37  54 N8        29.82R
THUNDER BAY    PTCLDY    57  28  33 W7        29.84R
SIOUX LOOKOUT  PTCLDY    45  39  81 NW6       29.91R
TORONTO        PTCLDY    66  43  42 SW8       30.03S
BIG TROUT LK   FLURRIES  32  30  93 NW5       29.90R
PICKLE LAKE    NOT AVBL
DRYDEN         CLEAR     48  39  71 W6        29.93R
KENORA         PTCLDY    48  37  66 NW8       29.96R
$$
                *** MANITOBA***

CITY           SKY/WX    TMP DP  RH WIND       PRES   REMARKS
BRANDON        PTCLDY    45  30  57 N10       30.05R
DAUPHIN        CLEAR     46  36  66 SE5       30.02R
ISLAND LAKE    CLOUDY    37  30  75 NW5       29.95R
PILOT MOUND      N/A     45  28  53 N6          N/A
THE PAS        PTCLDY    41  34  75 CALM      30.00R
THOMPSON       MOCLDY    34  25  69 SE3       29.93S
WINNIPEG       PTCLDY    46  37  71 NE6       30.03R
LYNN LAKE      FLURRIES  34  32  93 NW10G18   29.94R
CHURCHILL      FLURRIES  25  21  86 N8        29.92R WCI  16
GILLAM         MOCLDY    30  23  74 VRB2      29.95S
$$
                ***SASKATCHEWAN***

CITY           SKY/WX    TMP DP  RH WIND       PRES   REMARKS
ESTEVAN        PTCLDY    45  28  53 NW6       30.08R
KINDERSLEY     PTCLDY    39  32  75 E10       30.06R
LLOYDMINSTER   MOCLDY    43  32  65 S12       30.03F
PRINCE ALBERT  PTCLDY    48  25  40 N3        30.03R
REGINA         MOCLDY    46  34  61 CALM      30.08R



USA.gov is the U.S. government's official web portal to all federal, state and local government web resources and services.